Vinton, IA

7:31 AM CST on December 14, 2017 (GMT -0600)
Vinton-Veterans Memorial

Weather History for KVTI - July, 2013

Change the Weather History Date:

Tuesday, July 16, 2013

  Actual Average Record
Temperature  
Mean Temperature 82 °F -  
Max Temperature 90 °F 87 °F 98 °F (1977)
Min Temperature 75 °F 61 °F 48 °F (1973)
Cooling Degree Days 18    
Growing Degree Days 32 (Base 50)    
Moisture  
Dew Point 71 °F    
Average Humidity 75    
Maximum Humidity 89    
Minimum Humidity 53    
Precipitation  
Precipitation 0.00 in - - ()
Sea Level Pressure  
Sea Level Pressure 30.27 in    
Wind  
Wind Speed 5 mph (South)    
Max Wind Speed 10 mph    
Max Gust Speed -    
Visibility 10 miles    
Events      
Averages and records for this station are not official NWS values.
T = Trace of Precipitation, MM = Missing Value Source: NWS Daily Summary

Daily Weather History Graph

Daily Weather History Graph

Search for Another Location

Airport or City:

Trip Planner

Search our weather history database for the weather conditions in past years. The results will help you decide how hot, cold, wet, or windy it might be!

Date:

Astronomy

Jul. 16, 2013 Rise Set
Actual Time 5:46 AM CDT 8:41 PM CDT
Civil Twilight 5:12 AM CDT 9:15 PM CDT
Nautical Twilight 4:30 AM CDT 9:57 PM CDT
Astronomical Twilight 3:40 AM CDT 10:46 PM CDT
Moon 2:21 PM CDT (7/16) 12:19 AM CDT (7/16)
Length of Visible Light 16h 02m
Length of Day
14h 55m
First Quarter, 56% of the Moon is Illuminated
Jul 16
First Quarter
Jul 22
Full
Jul 29
Last Quarter
Aug 6
New
Aug 14
First Quarter

Hourly Weather History & Observations

Time (CDT) Temp. Heat Index Dew Point Humidity Pressure Visibility Wind Dir Wind Speed Gust Speed Precip Events Conditions
12:15 AM 77.9 °F - 71.2 °F 80% 30.24 in 10.0 mi SSE 5.8 mph - N/A   Scattered Clouds
12:35 AM 77.9 °F - 71.2 °F 80% 30.25 in 10.0 mi South 4.6 mph - N/A   Scattered Clouds
12:55 AM 77.9 °F - 71.8 °F 81% 30.24 in 10.0 mi South 4.6 mph - N/A   Scattered Clouds
1:15 AM 77.9 °F - 71.6 °F 81% 30.24 in 10.0 mi South 4.6 mph - N/A   Scattered Clouds
1:35 AM 77.9 °F - 72.0 °F 82% 30.24 in 10.0 mi South 4.6 mph - N/A   Scattered Clouds
1:55 AM 75.6 °F - 70.2 °F 83% 30.24 in 10.0 mi South 4.6 mph - N/A   Clear
2:15 AM 75.2 °F - 70.3 °F 85% 30.24 in 10.0 mi SSE 4.6 mph - N/A   Clear
2:35 AM 75.2 °F - 70.7 °F 86% 30.24 in 10.0 mi South 4.6 mph - N/A   Clear
2:55 AM 75.2 °F - 71.1 °F 87% 30.24 in 10.0 mi South 4.6 mph - N/A   Clear
3:15 AM 75.2 °F - 70.9 °F 86% 30.24 in 10.0 mi SSE 5.8 mph - N/A   Clear
3:35 AM 75.2 °F - 71.6 °F 89% 30.24 in 10.0 mi SSE 5.8 mph - N/A   Clear
3:55 AM 75.2 °F - 71.1 °F 87% 30.24 in 10.0 mi South 5.8 mph - N/A   Clear
4:15 AM 75.2 °F - 70.3 °F 85% 30.24 in 10.0 mi South 6.9 mph - N/A   Scattered Clouds
4:35 AM 75.2 °F - 70.2 °F 84% 30.24 in 10.0 mi South 5.8 mph - N/A   Overcast
4:55 AM 75.2 °F - 70.7 °F 86% 30.25 in 10.0 mi South 5.8 mph - N/A   Scattered Clouds
5:15 AM 75.2 °F - 71.1 °F 87% 30.25 in 10.0 mi South 5.8 mph - N/A   Clear
5:35 AM 75.2 °F - 71.6 °F 89% 30.26 in 10.0 mi South 4.6 mph - N/A   Clear
5:55 AM 75.2 °F - 71.6 °F 89% 30.26 in 10.0 mi South 4.6 mph - N/A   Clear
6:15 AM 75.2 °F - 71.6 °F 89% 30.26 in 10.0 mi South 3.5 mph - N/A   Clear
6:35 AM 75.2 °F - 71.1 °F 87% 30.27 in 10.0 mi South 4.6 mph - N/A   Clear
6:55 AM 75.2 °F - 70.2 °F 84% 30.28 in 10.0 mi South 4.6 mph - N/A   Clear
7:15 AM 75.9 °F - 69.8 °F 81% 30.28 in 10.0 mi South 5.8 mph - N/A   Clear
7:35 AM 77.9 °F - 70.9 °F 79% 30.28 in 10.0 mi South 5.8 mph - N/A   Clear
7:55 AM 77.9 °F - 69.6 °F 76% 30.28 in 10.0 mi South 5.8 mph - N/A   Clear
8:15 AM 80.2 °F 83.7 °F 70.9 °F 73% 30.28 in 10.0 mi SSW 6.9 mph - N/A   Clear
8:35 AM 80.2 °F 83.6 °F 70.3 °F 72% 30.29 in 10.0 mi SSW 5.8 mph - N/A   Clear
8:55 AM 81.1 °F 84.9 °F 70.3 °F 70% 30.29 in 10.0 mi SSW 6.9 mph - N/A   Clear
9:15 AM 82.2 °F 86.4 °F 70.5 °F 68% 30.30 in 10.0 mi SSW 6.9 mph - N/A   Clear
9:35 AM 82.8 °F 87.2 °F 70.7 °F 67% 30.30 in 10.0 mi SSW 6.9 mph - N/A   Clear
9:55 AM 84.2 °F 88.4 °F 70.0 °F 62% 30.30 in 10.0 mi SSW 6.9 mph - N/A   Clear
10:15 AM 84.4 °F 89.0 °F 70.3 °F 63% 30.29 in 10.0 mi SSW 8.1 mph - N/A   Scattered Clouds
10:55 AM 87.8 °F 94.3 °F 71.8 °F 59% 30.29 in 10.0 mi SSW 9.2 mph - N/A   Scattered Clouds
11:15 AM 90.5 °F 98.6 °F 73.0 °F 56% 30.29 in 10.0 mi South 8.1 mph - N/A   Scattered Clouds
11:35 AM 90.5 °F 98.1 °F 72.5 °F 55% 30.29 in 10.0 mi WSW 6.9 mph - N/A   Scattered Clouds
11:55 AM 89.2 °F 95.9 °F 71.4 °F 56% 30.29 in 10.0 mi SW 10.4 mph - N/A   Scattered Clouds
12:15 PM 90.5 °F 98.1 °F 72.1 °F 55% 30.29 in 10.0 mi SW 6.9 mph - N/A   Clear
7:35 PM 90.5 °F 97.0 °F 71.1 °F 53% 30.25 in - South 8.1 mph - N/A   Unknown
7:55 PM 87.8 °F 92.6 °F 70.0 °F 55% 30.25 in 10.0 mi South 4.6 mph - N/A   Scattered Clouds
8:15 PM 86.9 °F 92.5 °F 71.1 °F 59% 30.25 in 10.0 mi South 4.6 mph - N/A   Clear
8:35 PM 83.5 °F 88.0 °F 70.7 °F 65% 30.25 in 10.0 mi SSE 4.6 mph - N/A   Clear
8:55 PM 82.8 °F 87.2 °F 70.7 °F 67% 30.25 in 10.0 mi SSE 5.8 mph - N/A   Clear
9:15 PM 81.5 °F 85.3 °F 70.3 °F 69% 30.26 in 10.0 mi South 4.6 mph - N/A   Clear
9:35 PM 81.5 °F 85.5 °F 71.1 °F 70% 30.27 in 10.0 mi South 3.5 mph - N/A   Clear
9:55 PM 80.2 °F 83.7 °F 70.9 °F 73% 30.28 in 10.0 mi South 3.5 mph - N/A   Clear
10:15 PM 80.2 °F 84.0 °F 71.6 °F 75% 30.28 in 10.0 mi South 3.5 mph - N/A   Clear
10:35 PM 80.2 °F 84.0 °F 71.6 °F 75% 30.28 in 10.0 mi Calm Calm - N/A   Clear
10:55 PM 78.1 °F - 70.5 °F 77% 30.28 in 10.0 mi Calm Calm - N/A   Clear
11:15 PM 77.9 °F - 71.2 °F 80% 30.28 in 10.0 mi South 3.5 mph - N/A   Clear
11:35 PM 77.9 °F - 71.1 °F 79% 30.28 in 10.0 mi South 4.6 mph - N/A   Clear
11:55 PM 77.9 °F - 71.6 °F 81% 30.29 in 10.0 mi Calm Calm - N/A   Clear